Year,Month,Day,Hour,Minute,Value (Times are PST for temperature in C)
2014,11,28,00,00,7.90
2014,11,28,00,01,7.90
2014,11,28,00,02,7.90
2014,11,28,00,03,7.90
2014,11,28,00,04,7.90
2014,11,28,00,05,7.90
2014,11,28,00,06,7.90
2014,11,28,00,07,7.90
2014,11,28,00,08,7.90
2014,11,28,00,09,7.90
2014,11,28,00,10,7.90
2014,11,28,00,11,7.90
2014,11,28,00,12,7.90
2014,11,28,00,13,7.90
2014,11,28,00,14,7.90
2014,11,28,00,15,7.90
2014,11,28,00,16,7.90
2014,11,28,00,17,7.90
2014,11,28,00,18,7.90
2014,11,28,00,19,7.90
2014,11,28,00,20,7.90
2014,11,28,00,21,7.90
2014,11,28,00,22,7.90
2014,11,28,00,23,7.90
2014,11,28,00,24,7.80
2014,11,28,00,25,7.80
2014,11,28,00,26,7.80
2014,11,28,00,27,7.80
2014,11,28,00,28,7.80
2014,11,28,00,29,7.80
2014,11,28,00,30,7.80
2014,11,28,00,31,7.80
2014,11,28,00,32,7.80
2014,11,28,00,33,7.80
2014,11,28,00,34,7.80
2014,11,28,00,35,7.80
2014,11,28,00,36,7.80
2014,11,28,00,37,7.80
2014,11,28,00,38,7.80
2014,11,28,00,39,7.80
2014,11,28,00,40,7.80
2014,11,28,00,41,7.80
2014,11,28,00,42,7.80
2014,11,28,00,43,7.80
2014,11,28,00,44,7.80
2014,11,28,00,45,7.80
2014,11,28,00,46,7.80
2014,11,28,00,47,7.80
2014,11,28,00,48,7.70
2014,11,28,00,49,7.70
2014,11,28,00,50,7.70
2014,11,28,00,51,7.70
2014,11,28,00,52,7.70
2014,11,28,00,53,7.70
2014,11,28,00,54,7.70
2014,11,28,00,55,7.70
2014,11,28,00,56,7.80
2014,11,28,00,57,7.80
2014,11,28,00,58,7.80
2014,11,28,00,59,7.80
2014,11,28,01,00,7.80
2014,11,28,01,01,7.80
2014,11,28,01,02,7.80
2014,11,28,01,03,7.80
2014,11,28,01,04,7.80
2014,11,28,01,05,7.80
2014,11,28,01,06,7.80
2014,11,28,01,07,7.80
2014,11,28,01,08,7.90
2014,11,28,01,09,7.90
2014,11,28,01,10,7.90
2014,11,28,01,11,7.90
2014,11,28,01,12,7.90
2014,11,28,01,13,7.90
2014,11,28,01,14,7.90
2014,11,28,01,15,7.90
2014,11,28,01,16,7.90
2014,11,28,01,17,7.90
2014,11,28,01,18,7.90
2014,11,28,01,19,7.90
2014,11,28,01,20,7.90
2014,11,28,01,21,8.00
2014,11,28,01,22,8.00
2014,11,28,01,23,8.00
2014,11,28,01,24,8.00
2014,11,28,01,25,8.00
2014,11,28,01,26,8.00
2014,11,28,01,27,8.00
2014,11,28,01,28,8.00
2014,11,28,01,29,8.00
2014,11,28,01,30,8.00
2014,11,28,01,31,8.00
2014,11,28,01,32,8.00
2014,11,28,01,33,8.00
2014,11,28,01,34,8.00
2014,11,28,01,35,7.90
2014,11,28,01,36,7.90
2014,11,28,01,37,7.90
2014,11,28,01,38,7.90
2014,11,28,01,39,7.90
2014,11,28,01,40,7.90
2014,11,28,01,41,7.90
2014,11,28,01,42,7.90
2014,11,28,01,43,7.90
2014,11,28,01,44,7.90
2014,11,28,01,45,7.90
2014,11,28,01,46,7.90
2014,11,28,01,47,7.90
2014,11,28,01,48,7.90
2014,11,28,01,49,7.90
2014,11,28,01,50,7.90
2014,11,28,01,51,7.80
2014,11,28,01,52,7.80
2014,11,28,01,53,7.80
2014,11,28,01,54,7.80
2014,11,28,01,55,7.80
2014,11,28,01,56,7.80
2014,11,28,01,57,7.80
2014,11,28,01,58,7.80
2014,11,28,01,59,7.80
2014,11,28,02,00,7.80
2014,11,28,02,01,7.80
2014,11,28,02,02,7.80
2014,11,28,02,03,7.80
2014,11,28,02,04,7.80
2014,11,28,02,05,7.80
2014,11,28,02,06,7.80
2014,11,28,02,07,7.70
2014,11,28,02,08,7.70
2014,11,28,02,09,7.70
2014,11,28,02,10,7.70
2014,11,28,02,11,7.70
2014,11,28,02,12,7.70
2014,11,28,02,13,7.70
2014,11,28,02,14,7.70
2014,11,28,02,15,7.60
2014,11,28,02,16,7.60
2014,11,28,02,17,7.60
2014,11,28,02,18,7.60
2014,11,28,02,19,7.60
2014,11,28,02,20,7.60
2014,11,28,02,21,7.60
2014,11,28,02,22,7.60
2014,11,28,02,23,7.60
2014,11,28,02,24,7.60
2014,11,28,02,25,7.60
2014,11,28,02,26,7.50
2014,11,28,02,27,7.50
2014,11,28,02,28,7.50
2014,11,28,02,29,7.50
2014,11,28,02,30,7.60
2014,11,28,02,31,7.60
2014,11,28,02,32,7.60
2014,11,28,02,33,7.50
2014,11,28,02,34,7.50
2014,11,28,02,35,7.50
2014,11,28,02,36,7.50
2014,11,28,02,37,7.50
2014,11,28,02,38,7.40
2014,11,28,02,39,7.40
2014,11,28,02,40,7.40
2014,11,28,02,41,7.40
2014,11,28,02,42,7.40
2014,11,28,02,43,7.40
2014,11,28,02,44,7.40
2014,11,28,02,45,7.40
2014,11,28,02,46,7.40
2014,11,28,02,47,7.40
2014,11,28,02,48,7.30
2014,11,28,02,49,7.30
2014,11,28,02,50,7.30
2014,11,28,02,51,7.30
2014,11,28,02,52,7.30
2014,11,28,02,53,7.30
2014,11,28,02,54,7.30
2014,11,28,02,55,7.30
2014,11,28,02,56,7.30
2014,11,28,02,57,7.30
2014,11,28,02,58,7.30
2014,11,28,02,59,7.30
2014,11,28,03,00,7.30
2014,11,28,03,01,7.30
2014,11,28,03,02,7.30
2014,11,28,03,03,7.30
2014,11,28,03,04,7.30
2014,11,28,03,05,7.30
2014,11,28,03,06,7.30
2014,11,28,03,07,7.30
2014,11,28,03,08,7.30
2014,11,28,03,09,7.30
2014,11,28,03,10,7.30
2014,11,28,03,11,7.20
2014,11,28,03,12,7.20
2014,11,28,03,13,7.20
2014,11,28,03,14,7.20
2014,11,28,03,15,7.20
2014,11,28,03,16,7.20
2014,11,28,03,17,7.20
2014,11,28,03,18,7.20
2014,11,28,03,19,7.20
2014,11,28,03,20,7.20
2014,11,28,03,21,7.20
2014,11,28,03,22,7.20
2014,11,28,03,23,7.10
2014,11,28,03,24,7.10
2014,11,28,03,25,7.10
2014,11,28,03,26,7.10
2014,11,28,03,27,7.10
2014,11,28,03,28,7.10
2014,11,28,03,29,7.10
2014,11,28,03,30,7.10
2014,11,28,03,31,7.10
2014,11,28,03,32,7.10
2014,11,28,03,33,7.10
2014,11,28,03,34,7.10
2014,11,28,03,35,7.10
2014,11,28,03,36,7.10
2014,11,28,03,37,7.00
2014,11,28,03,38,7.00
2014,11,28,03,39,7.00
2014,11,28,03,40,7.00
2014,11,28,03,41,7.00
2014,11,28,03,42,7.00
2014,11,28,03,43,7.00
2014,11,28,03,44,7.00
2014,11,28,03,45,6.90
2014,11,28,03,46,6.90
2014,11,28,03,47,6.90
2014,11,28,03,48,6.90
2014,11,28,03,49,6.90
2014,11,28,03,50,6.90
2014,11,28,03,51,6.90
2014,11,28,03,52,6.90
2014,11,28,03,53,6.90
2014,11,28,03,54,6.90
2014,11,28,03,55,6.90
2014,11,28,03,56,6.90
2014,11,28,03,57,6.90
2014,11,28,03,58,6.90
2014,11,28,03,59,6.90
2014,11,28,04,00,6.90
2014,11,28,04,01,6.90
2014,11,28,04,02,6.90
2014,11,28,04,03,6.90
2014,11,28,04,04,6.90
2014,11,28,04,05,6.90
2014,11,28,04,06,6.90
2014,11,28,04,07,6.90
2014,11,28,04,08,6.80
2014,11,28,04,09,6.80
2014,11,28,04,10,6.80
2014,11,28,04,11,6.80
2014,11,28,04,12,6.80
2014,11,28,04,13,6.80
2014,11,28,04,14,6.80
2014,11,28,04,15,6.80
2014,11,28,04,16,6.80
2014,11,28,04,17,6.80
2014,11,28,04,18,6.80
2014,11,28,04,19,6.80
2014,11,28,04,20,6.80
2014,11,28,04,21,6.80
2014,11,28,04,22,6.70
2014,11,28,04,23,6.70
2014,11,28,04,24,6.70
2014,11,28,04,25,6.70
2014,11,28,04,26,6.70
2014,11,28,04,27,6.70
2014,11,28,04,28,6.70
2014,11,28,04,29,6.80
2014,11,28,04,30,6.80
2014,11,28,04,31,6.80
2014,11,28,04,32,6.70
2014,11,28,04,33,6.70
2014,11,28,04,34,6.70
2014,11,28,04,35,6.70
2014,11,28,04,36,6.70
2014,11,28,04,37,6.70
2014,11,28,04,38,6.70
2014,11,28,04,39,6.70
2014,11,28,04,40,6.70
2014,11,28,04,41,6.70
2014,11,28,04,42,6.70
2014,11,28,04,43,6.70
2014,11,28,04,44,6.60
2014,11,28,04,45,6.60
2014,11,28,04,46,6.60
2014,11,28,04,47,6.60
2014,11,28,04,48,6.50
2014,11,28,04,49,6.50
2014,11,28,04,50,6.50
2014,11,28,04,51,6.50
2014,11,28,04,52,6.50
2014,11,28,04,53,6.50
2014,11,28,04,54,6.40
2014,11,28,04,55,6.40
2014,11,28,04,56,6.40
2014,11,28,04,57,6.40
2014,11,28,04,58,6.40
2014,11,28,04,59,6.40
2014,11,28,05,00,6.40
2014,11,28,05,01,6.40
2014,11,28,05,02,6.40
2014,11,28,05,03,6.40
2014,11,28,05,04,6.40
2014,11,28,05,05,6.40
2014,11,28,05,06,6.50
2014,11,28,05,07,6.50
2014,11,28,05,08,6.50
2014,11,28,05,09,6.40
2014,11,28,05,10,6.40
2014,11,28,05,11,6.40
2014,11,28,05,12,6.40
2014,11,28,05,13,6.40
2014,11,28,05,14,6.40
2014,11,28,05,15,6.40
2014,11,28,05,16,6.40
2014,11,28,05,17,6.40
2014,11,28,05,18,6.40
2014,11,28,05,19,6.40
2014,11,28,05,20,6.30
2014,11,28,05,21,6.30
2014,11,28,05,22,6.30
2014,11,28,05,23,6.30
2014,11,28,05,24,6.30
2014,11,28,05,25,6.30
2014,11,28,05,26,6.30
2014,11,28,05,27,6.30
2014,11,28,05,28,6.30
2014,11,28,05,29,6.30
2014,11,28,05,30,6.30
2014,11,28,05,31,6.30
2014,11,28,05,32,6.30
2014,11,28,05,33,6.30
2014,11,28,05,34,6.30
2014,11,28,05,35,6.30
2014,11,28,05,36,6.30
2014,11,28,05,37,6.30
2014,11,28,05,38,6.30
2014,11,28,05,39,6.30
2014,11,28,05,40,6.30
2014,11,28,05,41,6.20
2014,11,28,05,42,6.20
2014,11,28,05,43,6.20
2014,11,28,05,44,6.20
2014,11,28,05,45,6.20
2014,11,28,05,46,6.20
2014,11,28,05,47,6.20
2014,11,28,05,48,6.30
2014,11,28,05,49,6.30
2014,11,28,05,50,6.30
2014,11,28,05,51,6.30
2014,11,28,05,52,6.30
2014,11,28,05,53,6.30
2014,11,28,05,54,6.30
2014,11,28,05,55,6.30
2014,11,28,05,56,6.30
2014,11,28,05,57,6.30
2014,11,28,05,58,6.30
2014,11,28,05,59,6.30
2014,11,28,06,00,6.30
2014,11,28,06,01,6.20
2014,11,28,06,02,6.20
2014,11,28,06,03,6.20
2014,11,28,06,04,6.20
2014,11,28,06,05,6.20
2014,11,28,06,06,6.20
2014,11,28,06,07,6.10
2014,11,28,06,08,6.10
2014,11,28,06,09,6.10
2014,11,28,06,10,6.10
2014,11,28,06,11,6.10
2014,11,28,06,12,6.10
2014,11,28,06,13,6.10
2014,11,28,06,14,6.10
2014,11,28,06,15,6.10
2014,11,28,06,16,6.10
2014,11,28,06,17,6.10
2014,11,28,06,18,6.10
2014,11,28,06,19,6.10
2014,11,28,06,20,6.00
2014,11,28,06,21,6.00
2014,11,28,06,22,6.00
2014,11,28,06,23,6.00
2014,11,28,06,24,6.00
2014,11,28,06,25,5.90
2014,11,28,06,26,5.90
2014,11,28,06,27,5.90
2014,11,28,06,28,5.90
2014,11,28,06,29,5.90
2014,11,28,06,30,5.80
2014,11,28,06,31,5.80
2014,11,28,06,32,5.80
2014,11,28,06,33,5.80
2014,11,28,06,34,5.80
2014,11,28,06,35,5.70
2014,11,28,06,36,5.70
2014,11,28,06,37,5.70
2014,11,28,06,38,5.70
2014,11,28,06,39,5.70
2014,11,28,06,40,5.70
2014,11,28,06,41,5.70
2014,11,28,06,42,5.60
2014,11,28,06,43,5.60
2014,11,28,06,44,5.60
2014,11,28,06,45,5.60
2014,11,28,06,46,5.60
2014,11,28,06,47,5.60
2014,11,28,06,48,5.50
2014,11,28,06,49,5.50
2014,11,28,06,50,5.40
2014,11,28,06,51,5.40
2014,11,28,06,52,5.40
2014,11,28,06,53,5.40
2014,11,28,06,54,5.30
2014,11,28,06,55,5.30
2014,11,28,06,56,5.30
2014,11,28,06,57,5.20
2014,11,28,06,58,5.20
2014,11,28,06,59,5.20
2014,11,28,07,00,5.20
2014,11,28,07,01,5.20
2014,11,28,07,02,5.20
2014,11,28,07,03,5.10
2014,11,28,07,04,5.10
2014,11,28,07,05,5.00
2014,11,28,07,06,5.00
2014,11,28,07,07,4.90
2014,11,28,07,08,4.90
2014,11,28,07,09,4.90
2014,11,28,07,10,4.80
2014,11,28,07,11,4.80
2014,11,28,07,12,4.70
2014,11,28,07,13,4.70
2014,11,28,07,14,4.70
2014,11,28,07,15,4.60
2014,11,28,07,16,4.60
2014,11,28,07,17,4.50
2014,11,28,07,18,4.50
2014,11,28,07,19,4.50
2014,11,28,07,20,4.40
2014,11,28,07,21,4.40
2014,11,28,07,22,4.40
2014,11,28,07,23,4.40
2014,11,28,07,24,4.40
2014,11,28,07,25,4.40
2014,11,28,07,26,4.40
2014,11,28,07,27,4.40
2014,11,28,07,28,4.40
2014,11,28,07,29,4.50
2014,11,28,07,30,4.50
2014,11,28,07,31,4.60
2014,11,28,07,32,4.60
2014,11,28,07,33,4.70
2014,11,28,07,34,4.80
2014,11,28,07,35,4.80
2014,11,28,07,36,4.90
2014,11,28,07,37,4.90
2014,11,28,07,38,5.00
2014,11,28,07,39,5.00
2014,11,28,07,40,5.10
2014,11,28,07,41,5.10
2014,11,28,07,42,5.10
2014,11,28,07,43,5.10
2014,11,28,07,44,5.10
2014,11,28,07,45,5.10
2014,11,28,07,46,5.20
2014,11,28,07,47,5.20
2014,11,28,07,48,5.20
2014,11,28,07,49,5.20
2014,11,28,07,50,5.20
2014,11,28,07,51,5.20
2014,11,28,07,52,5.20
2014,11,28,07,53,5.20
2014,11,28,07,54,5.20
2014,11,28,07,55,5.30
2014,11,28,07,56,5.30
2014,11,28,07,57,5.30
2014,11,28,07,58,5.30
2014,11,28,07,59,5.30
2014,11,28,08,00,5.30
2014,11,28,08,01,5.30
2014,11,28,08,02,5.30
2014,11,28,08,03,5.30
2014,11,28,08,04,5.30
2014,11,28,08,05,5.30
2014,11,28,08,06,5.30
2014,11,28,08,07,5.30
2014,11,28,08,08,5.40
2014,11,28,08,09,5.40
2014,11,28,08,10,5.40
2014,11,28,08,11,5.40
2014,11,28,08,12,5.40
2014,11,28,08,13,5.40
2014,11,28,08,14,5.40
2014,11,28,08,15,5.40
2014,11,28,08,16,5.40
2014,11,28,08,17,5.40
2014,11,28,08,18,5.40
2014,11,28,08,19,5.40
2014,11,28,08,20,5.40
2014,11,28,08,21,5.40
2014,11,28,08,22,5.40
2014,11,28,08,23,5.40
2014,11,28,08,24,5.40
2014,11,28,08,25,5.30
2014,11,28,08,26,5.30
2014,11,28,08,27,5.30
2014,11,28,08,28,5.30
2014,11,28,08,29,5.30
2014,11,28,08,30,5.30
2014,11,28,08,31,5.30
2014,11,28,08,32,5.30
2014,11,28,08,33,5.30
2014,11,28,08,34,5.30
2014,11,28,08,35,5.30
2014,11,28,08,36,5.30
2014,11,28,08,37,5.30
2014,11,28,08,38,5.20
2014,11,28,08,39,5.20
2014,11,28,08,40,5.20
2014,11,28,08,41,5.20
2014,11,28,08,42,5.20
2014,11,28,08,43,5.20
2014,11,28,08,44,5.20
2014,11,28,08,45,5.20
2014,11,28,08,46,5.10
2014,11,28,08,47,5.10
2014,11,28,08,48,5.10
2014,11,28,08,49,5.10
2014,11,28,08,50,5.10
2014,11,28,08,51,5.00
2014,11,28,08,52,5.00
2014,11,28,08,53,5.00
2014,11,28,08,54,5.00
2014,11,28,08,55,5.00
2014,11,28,08,56,5.00
2014,11,28,08,57,5.00
2014,11,28,08,58,5.00
2014,11,28,08,59,5.00
2014,11,28,09,00,5.10
2014,11,28,09,01,5.10
2014,11,28,09,02,5.10
2014,11,28,09,03,5.20
2014,11,28,09,04,5.20
2014,11,28,09,05,5.20
2014,11,28,09,06,5.30
2014,11,28,09,07,5.30
2014,11,28,09,08,5.30
2014,11,28,09,09,5.30
2014,11,28,09,10,5.30
2014,11,28,09,11,5.40
2014,11,28,09,12,5.40
2014,11,28,09,13,5.40
2014,11,28,09,14,5.40
2014,11,28,09,15,5.40
2014,11,28,09,16,5.40
2014,11,28,09,17,5.50
2014,11,28,09,18,5.50
2014,11,28,09,19,5.60
2014,11,28,09,20,5.60
2014,11,28,09,21,5.70
2014,11,28,09,22,5.70
2014,11,28,09,23,5.80
2014,11,28,09,24,5.80
2014,11,28,09,25,5.90
2014,11,28,09,26,5.90
2014,11,28,09,27,5.90
2014,11,28,09,28,6.00
2014,11,28,09,29,6.00
2014,11,28,09,30,6.10
2014,11,28,09,31,6.10
2014,11,28,09,32,6.10
2014,11,28,09,33,6.10
2014,11,28,09,34,6.10
2014,11,28,09,35,6.10
2014,11,28,09,36,6.10
2014,11,28,09,37,6.10
2014,11,28,09,38,6.10
2014,11,28,09,39,6.10
2014,11,28,09,40,6.00
2014,11,28,09,41,6.00
2014,11,28,09,42,6.00
2014,11,28,09,43,6.10
2014,11,28,09,44,6.10
2014,11,28,09,45,6.10
2014,11,28,09,46,6.10
2014,11,28,09,47,6.10
2014,11,28,09,48,6.10
2014,11,28,09,49,6.10
2014,11,28,09,50,6.10
2014,11,28,09,51,6.10
2014,11,28,09,52,6.20
2014,11,28,09,53,6.20
2014,11,28,09,54,6.20
2014,11,28,09,55,6.20
2014,11,28,09,56,6.20
2014,11,28,09,57,6.20
2014,11,28,09,58,6.20
2014,11,28,09,59,6.20
2014,11,28,10,00,6.20
2014,11,28,10,01,6.20
2014,11,28,10,02,6.20
2014,11,28,10,03,6.20
2014,11,28,10,04,6.20
2014,11,28,10,05,6.30
2014,11,28,10,06,6.20
2014,11,28,10,07,6.30
2014,11,28,10,08,6.30
2014,11,28,10,09,6.20
2014,11,28,10,10,6.30
2014,11,28,10,11,6.30
2014,11,28,10,12,6.30
2014,11,28,10,13,6.30
2014,11,28,10,14,6.20
2014,11,28,10,15,6.20
2014,11,28,10,16,6.20
2014,11,28,10,17,6.30
2014,11,28,10,18,6.30
2014,11,28,10,19,6.30
2014,11,28,10,20,6.30
2014,11,28,10,21,6.30
2014,11,28,10,22,6.30
2014,11,28,10,23,6.30
2014,11,28,10,24,6.30
2014,11,28,10,25,6.30
2014,11,28,10,26,6.30
2014,11,28,10,27,6.40
2014,11,28,10,28,6.40
2014,11,28,10,29,6.40
2014,11,28,10,30,6.40
2014,11,28,10,31,6.40
2014,11,28,10,32,6.40
2014,11,28,10,33,6.40
2014,11,28,10,34,6.40
2014,11,28,10,35,6.40
2014,11,28,10,36,6.40
2014,11,28,10,37,6.50
2014,11,28,10,38,6.50
2014,11,28,10,39,6.50
2014,11,28,10,40,6.50
2014,11,28,10,41,6.60
2014,11,28,10,42,6.60
2014,11,28,10,43,6.70
2014,11,28,10,44,6.70
2014,11,28,10,45,6.70
2014,11,28,10,46,6.70
2014,11,28,10,47,6.70
2014,11,28,10,48,6.70
2014,11,28,10,49,6.70
2014,11,28,10,50,6.70
2014,11,28,10,51,6.70
2014,11,28,10,52,6.70
2014,11,28,10,53,6.70
2014,11,28,10,54,6.70
2014,11,28,10,55,6.70
2014,11,28,10,56,6.70
2014,11,28,10,57,6.70
2014,11,28,10,58,6.70
2014,11,28,10,59,6.80
2014,11,28,11,00,6.80
2014,11,28,11,01,6.80
2014,11,28,11,02,6.90
2014,11,28,11,03,6.90
2014,11,28,11,04,6.90
2014,11,28,11,05,7.00
2014,11,28,11,06,7.00
2014,11,28,11,07,7.00
2014,11,28,11,08,7.00
2014,11,28,11,09,7.10
2014,11,28,11,10,7.10
2014,11,28,11,11,7.10
2014,11,28,11,12,7.10
2014,11,28,11,13,7.00
2014,11,28,11,14,7.00
2014,11,28,11,15,7.00
2014,11,28,11,16,6.90
2014,11,28,11,17,6.90
2014,11,28,11,18,6.90
2014,11,28,11,19,6.90
2014,11,28,11,20,6.90
2014,11,28,11,21,6.90
2014,11,28,11,22,6.90
2014,11,28,11,23,6.90
2014,11,28,11,24,6.90
2014,11,28,11,25,6.90
2014,11,28,11,26,6.80
2014,11,28,11,27,6.80
2014,11,28,11,28,6.80
2014,11,28,11,29,6.80
2014,11,28,11,30,6.80
2014,11,28,11,31,6.80
2014,11,28,11,32,6.80
2014,11,28,11,33,6.80
2014,11,28,11,34,6.80
2014,11,28,11,35,6.90
2014,11,28,11,36,6.90
2014,11,28,11,37,6.90
2014,11,28,11,38,6.90
2014,11,28,11,39,6.90
2014,11,28,11,40,6.90
2014,11,28,11,41,6.90
2014,11,28,11,42,6.90
2014,11,28,11,43,6.80
2014,11,28,11,44,6.80
2014,11,28,11,45,6.80
2014,11,28,11,46,6.70
2014,11,28,11,47,6.70
2014,11,28,11,48,6.70
2014,11,28,11,49,6.70
2014,11,28,11,50,6.70
2014,11,28,11,51,6.80
2014,11,28,11,52,6.80
2014,11,28,11,53,6.80
2014,11,28,11,54,6.80
2014,11,28,11,55,6.80
2014,11,28,11,56,6.80
2014,11,28,11,57,6.80
2014,11,28,11,58,6.80
2014,11,28,11,59,6.80
2014,11,28,12,00,6.80
2014,11,28,12,01,6.70
2014,11,28,12,02,6.70
2014,11,28,12,03,6.70
2014,11,28,12,04,6.70
2014,11,28,12,05,6.70
2014,11,28,12,06,6.70
2014,11,28,12,07,6.70
2014,11,28,12,08,6.70
2014,11,28,12,09,6.70
2014,11,28,12,10,6.70
2014,11,28,12,11,6.70
2014,11,28,12,12,6.70
2014,11,28,12,13,6.80
2014,11,28,12,14,6.80
2014,11,28,12,15,6.80
2014,11,28,12,16,6.80
2014,11,28,12,17,6.80
2014,11,28,12,18,6.80
2014,11,28,12,19,6.80
2014,11,28,12,20,6.80
2014,11,28,12,21,6.80
2014,11,28,12,22,6.80
2014,11,28,12,23,6.80
2014,11,28,12,24,6.80
2014,11,28,12,25,6.80
2014,11,28,12,26,6.80
2014,11,28,12,27,6.90
2014,11,28,12,28,6.90
2014,11,28,12,29,6.90
2014,11,28,12,30,6.90
2014,11,28,12,31,6.90
2014,11,28,12,32,6.90
2014,11,28,12,33,6.90
2014,11,28,12,34,6.90
2014,11,28,12,35,6.90
2014,11,28,12,36,6.90
2014,11,28,12,37,6.90
2014,11,28,12,38,6.90
2014,11,28,12,39,6.90
2014,11,28,12,40,6.90
2014,11,28,12,41,6.90
2014,11,28,12,42,6.90
2014,11,28,12,43,7.00
2014,11,28,12,44,7.00
2014,11,28,12,45,7.10
2014,11,28,12,46,7.10
2014,11,28,12,47,7.10
2014,11,28,12,48,7.10
2014,11,28,12,49,7.10
2014,11,28,12,50,7.10
2014,11,28,12,51,7.10
2014,11,28,12,52,7.10
2014,11,28,12,53,7.10
2014,11,28,12,54,7.10
2014,11,28,12,55,7.10
2014,11,28,12,56,7.10
2014,11,28,12,57,7.10
2014,11,28,12,58,7.00
2014,11,28,12,59,6.90
2014,11,28,13,00,6.90
2014,11,28,13,01,6.90
2014,11,28,13,02,6.90
2014,11,28,13,03,6.90
2014,11,28,13,04,6.80
2014,11,28,13,05,6.80
2014,11,28,13,06,6.80
2014,11,28,13,07,6.80
2014,11,28,13,08,6.80
2014,11,28,13,09,6.80
2014,11,28,13,10,6.80
2014,11,28,13,11,6.80
2014,11,28,13,12,6.80
2014,11,28,13,13,6.80
2014,11,28,13,14,6.80
2014,11,28,13,15,6.80
2014,11,28,13,16,6.80
2014,11,28,13,17,6.80
2014,11,28,13,18,6.80
2014,11,28,13,19,6.80
2014,11,28,13,20,6.90
2014,11,28,13,21,6.90
2014,11,28,13,22,6.90
2014,11,28,13,23,6.90
2014,11,28,13,24,6.80
2014,11,28,13,25,6.80
2014,11,28,13,26,6.80
2014,11,28,13,27,6.80
2014,11,28,13,28,6.80
2014,11,28,13,29,6.80
2014,11,28,13,30,6.80
2014,11,28,13,31,6.80
2014,11,28,13,32,6.80
2014,11,28,13,33,6.80
2014,11,28,13,34,6.80
2014,11,28,13,35,6.80
2014,11,28,13,36,6.70
2014,11,28,13,37,6.70
2014,11,28,13,38,6.60
2014,11,28,13,39,6.60
2014,11,28,13,40,6.50
2014,11,28,13,41,6.50
2014,11,28,13,42,6.40
2014,11,28,13,43,6.40
2014,11,28,13,44,6.30
2014,11,28,13,45,6.30
2014,11,28,13,46,6.30
2014,11,28,13,47,6.30
2014,11,28,13,48,6.30
2014,11,28,13,49,6.30
2014,11,28,13,50,6.30
2014,11,28,13,51,6.30
2014,11,28,13,52,6.30
2014,11,28,13,53,6.30
2014,11,28,13,54,6.30
2014,11,28,13,55,6.30
2014,11,28,13,56,6.30
2014,11,28,13,57,6.30
2014,11,28,13,58,6.30
2014,11,28,13,59,6.30
2014,11,28,14,00,6.30
2014,11,28,14,01,6.20
2014,11,28,14,02,6.20
2014,11,28,14,03,6.20
2014,11,28,14,04,6.20
2014,11,28,14,05,6.20
2014,11,28,14,06,6.20
2014,11,28,14,07,6.20
2014,11,28,14,08,6.20
2014,11,28,14,09,6.20
2014,11,28,14,10,6.20
2014,11,28,14,11,6.20
2014,11,28,14,12,6.30
2014,11,28,14,13,6.30
2014,11,28,14,14,6.30
2014,11,28,14,15,6.30
2014,11,28,14,16,6.40
2014,11,28,14,17,6.40
2014,11,28,14,18,6.40
2014,11,28,14,19,6.40
2014,11,28,14,20,6.40
2014,11,28,14,21,6.40
2014,11,28,14,22,6.40
2014,11,28,14,23,6.40
2014,11,28,14,24,6.40
2014,11,28,14,25,6.40
2014,11,28,14,26,6.30
2014,11,28,14,27,6.30
2014,11,28,14,28,6.30
2014,11,28,14,29,6.20
2014,11,28,14,30,6.20
2014,11,28,14,31,6.20
2014,11,28,14,32,6.20
2014,11,28,14,33,6.20
2014,11,28,14,34,6.10
2014,11,28,14,35,6.10
2014,11,28,14,36,6.10
2014,11,28,14,37,6.10
2014,11,28,14,38,6.10
2014,11,28,14,39,6.00
2014,11,28,14,40,6.00
2014,11,28,14,41,5.90
2014,11,28,14,42,5.90
2014,11,28,14,43,5.90
2014,11,28,14,44,5.90
2014,11,28,14,45,5.90
2014,11,28,14,46,5.80
2014,11,28,14,47,5.80
2014,11,28,14,48,5.80
2014,11,28,14,49,5.80
2014,11,28,14,50,5.80
2014,11,28,14,51,5.70
2014,11,28,14,52,5.70
2014,11,28,14,53,5.70
2014,11,28,14,54,5.60
2014,11,28,14,55,5.60
2014,11,28,14,56,5.50
2014,11,28,14,57,5.50
2014,11,28,14,58,5.40
2014,11,28,14,59,5.40
2014,11,28,15,00,5.40
2014,11,28,15,01,5.40
2014,11,28,15,02,5.40
2014,11,28,15,03,5.40
2014,11,28,15,04,5.30
2014,11,28,15,05,5.30
2014,11,28,15,06,5.20
2014,11,28,15,07,5.20
2014,11,28,15,08,5.20
2014,11,28,15,09,5.20
2014,11,28,15,10,5.10
2014,11,28,15,11,5.10
2014,11,28,15,12,5.10
2014,11,28,15,13,5.10
2014,11,28,15,14,5.10
2014,11,28,15,15,5.10
2014,11,28,15,16,5.00
2014,11,28,15,17,5.00
2014,11,28,15,18,5.00
2014,11,28,15,19,5.00
2014,11,28,15,20,5.00
2014,11,28,15,21,4.90
2014,11,28,15,22,4.90
2014,11,28,15,23,4.90
2014,11,28,15,24,4.90
2014,11,28,15,25,4.90
2014,11,28,15,26,4.90
2014,11,28,15,27,4.90
2014,11,28,15,28,4.90
2014,11,28,15,29,4.90
2014,11,28,15,30,4.80
2014,11,28,15,31,4.80
2014,11,28,15,32,4.80
2014,11,28,15,33,4.80
2014,11,28,15,34,4.80
2014,11,28,15,35,4.80
2014,11,28,15,36,4.80
2014,11,28,15,37,4.80
2014,11,28,15,38,4.80
2014,11,28,15,39,4.80
2014,11,28,15,40,4.70
2014,11,28,15,41,4.70
2014,11,28,15,42,4.70
2014,11,28,15,43,4.70
2014,11,28,15,44,4.70
2014,11,28,15,45,4.70
2014,11,28,15,46,4.70
2014,11,28,15,47,4.70
2014,11,28,15,48,4.60
2014,11,28,15,49,4.60
2014,11,28,15,50,4.50
2014,11,28,15,51,4.50
2014,11,28,15,52,4.50
2014,11,28,15,53,4.40
2014,11,28,15,54,4.40
2014,11,28,15,55,4.30
2014,11,28,15,56,4.30
2014,11,28,15,57,4.30
2014,11,28,15,58,4.30
2014,11,28,15,59,4.30
2014,11,28,16,00,4.20
2014,11,28,16,01,4.20
2014,11,28,16,02,4.20
2014,11,28,16,03,4.20
2014,11,28,16,04,4.20
2014,11,28,16,05,4.20
2014,11,28,16,06,4.20
2014,11,28,16,07,4.20
2014,11,28,16,08,4.20
2014,11,28,16,09,4.20
2014,11,28,16,10,4.20
2014,11,28,16,11,4.20
2014,11,28,16,12,4.20
2014,11,28,16,13,4.10
2014,11,28,16,14,4.10
2014,11,28,16,15,4.10
2014,11,28,16,16,4.10
2014,11,28,16,17,4.10
2014,11,28,16,18,4.10
2014,11,28,16,19,4.10
2014,11,28,16,20,4.10
2014,11,28,16,21,4.10
2014,11,28,16,22,4.10
2014,11,28,16,23,4.10
2014,11,28,16,24,4.10
2014,11,28,16,25,4.10
2014,11,28,16,26,4.10
2014,11,28,16,27,4.00
2014,11,28,16,28,4.00
2014,11,28,16,29,4.00
2014,11,28,16,30,4.00
2014,11,28,16,31,4.00
2014,11,28,16,32,3.90
2014,11,28,16,33,3.90
2014,11,28,16,34,3.90
2014,11,28,16,35,3.90
2014,11,28,16,36,3.90
2014,11,28,16,37,3.90
2014,11,28,16,38,3.90
2014,11,28,16,39,3.90
2014,11,28,16,40,3.90
2014,11,28,16,41,3.90
2014,11,28,16,42,3.90
2014,11,28,16,43,3.80
2014,11,28,16,44,3.80
2014,11,28,16,45,3.80
2014,11,28,16,46,3.80
2014,11,28,16,47,3.80
2014,11,28,16,48,3.70
2014,11,28,16,49,3.70
2014,11,28,16,50,3.70
2014,11,28,16,51,3.70
2014,11,28,16,52,3.70
2014,11,28,16,53,3.70
2014,11,28,16,54,3.70
2014,11,28,16,55,3.70
2014,11,28,16,56,3.70
2014,11,28,16,57,3.70
2014,11,28,16,58,3.70
2014,11,28,16,59,3.70
2014,11,28,17,00,3.60
2014,11,28,17,01,3.60
2014,11,28,17,02,3.60
2014,11,28,17,03,3.60
2014,11,28,17,04,3.60
2014,11,28,17,05,3.60
2014,11,28,17,06,3.60
2014,11,28,17,07,3.60
2014,11,28,17,08,3.60
2014,11,28,17,09,3.60
2014,11,28,17,10,3.60
2014,11,28,17,11,3.60
2014,11,28,17,12,3.60
2014,11,28,17,13,3.60
2014,11,28,17,14,3.60
2014,11,28,17,30,3.30
2014,11,28,17,31,3.30
2014,11,28,17,32,3.20
2014,11,28,17,33,3.20
2014,11,28,17,34,3.20
2014,11,28,17,35,3.20
2014,11,28,17,36,3.20
2014,11,28,17,37,3.20
2014,11,28,17,38,3.20
2014,11,28,17,39,3.20
2014,11,28,17,40,3.10
2014,11,28,17,41,3.10
2014,11,28,17,42,3.10
2014,11,28,17,43,3.10
2014,11,28,17,44,3.10
2014,11,28,17,45,3.10
2014,11,28,17,46,3.10
2014,11,28,17,47,3.00
2014,11,28,17,48,3.00
2014,11,28,17,49,3.00
2014,11,28,17,50,3.00
2014,11,28,17,51,3.00
2014,11,28,17,52,3.00
2014,11,28,17,53,3.00
2014,11,28,17,54,3.00
2014,11,28,17,55,2.90
2014,11,28,17,56,2.90
2014,11,28,17,57,2.90
2014,11,28,17,58,2.90
2014,11,28,17,59,2.90
2014,11,28,18,00,2.90
2014,11,28,18,01,2.90
2014,11,28,18,02,2.90
2014,11,28,18,03,2.90
2014,11,28,18,04,2.90
2014,11,28,18,05,2.80
2014,11,28,18,06,2.80
2014,11,28,18,07,2.80
2014,11,28,18,08,2.80
2014,11,28,18,09,2.80
2014,11,28,18,10,2.80
2014,11,28,18,11,2.80
2014,11,28,18,12,2.80
2014,11,28,18,13,2.70
2014,11,28,18,14,2.70
2014,11,28,18,15,2.70
2014,11,28,18,16,2.70
2014,11,28,18,17,2.70
2014,11,28,18,18,2.70
2014,11,28,18,19,2.70
2014,11,28,18,20,2.70
2014,11,28,18,21,2.70